Location: Newark
(51.3318°N, 0.0053°E)
Time: 02:25:50
(UTC+00:00)

Envisat - Pass Details

Date: 23 January 2022
Orbit: 764 x 765 km, 98.2° (Epoch: 28 May)

Event Time Altitude Azimuth Distance (km) Brightness Sun altitude
Rises 06:08:28 0° 8° (N) 3,244 6.2 -15.6°
Reaches altitude 10° 06:10:59 10° 359° (N) 2,313 5.3 -15.2°
Maximum altitude 06:15:27 32° 297° (WNW) 1,294 3.6 -14.5°
Drops below altitude 10° 06:19:54 10° 236° (SW) 2,300 5.1 -13.8°
Sets 06:22:24 0° 226° (SW) 3,222 5.9 -13.4°
